Estación de Codegua

Ultimos registro cada 15 minutos 86
Estación Fecha / Hora Temperatura Humedad Lluvia Velocidad Dirección Radiación Presion
86 Codegua 06-05-2026 21:15 11 98,7 0 0 131 0,6 961,4
85 Codegua 06-05-2026 21:00 11,1 98,7 0 0 131 0,6 961,8
84 Codegua 06-05-2026 20:45 11,2 98,6 0 0 131 0,6 961,6
83 Codegua 06-05-2026 20:30 11,1 98,5 0 0 157 0,6 961,6
82 Codegua 06-05-2026 20:15 11,2 98,5 0 0 212 0,6 961,6
81 Codegua 06-05-2026 20:00 11,3 98,5 0 0 211 0,6 961,3
80 Codegua 06-05-2026 19:45 11,4 98,5 0 0 211 0,6 961,1
79 Codegua 06-05-2026 19:30 11,4 98,5 0 0 211 0,6 961,2
78 Codegua 06-05-2026 19:15 11,6 98,3 0 0 211 0,6 960,9
77 Codegua 06-05-2026 19:00 11,6 98,2 0 0 211 0,6 960,9
76 Codegua 06-05-2026 18:45 11,6 98,1 0 0 211 0,6 960,8
75 Codegua 06-05-2026 18:30 11,5 98,1 0 0 211 0,6 960,4
74 Codegua 06-05-2026 18:15 11,6 98,2 0 0 173 0,6 960,3
73 Codegua 06-05-2026 18:00 11,6 98,4 0 0 142 1,9 960,1
72 Codegua 06-05-2026 17:45 11,6 98,3 0 0 212 5,6 959,7
71 Codegua 06-05-2026 17:30 11,9 98,2 0,2 0 208 15,6 959,5
70 Codegua 06-05-2026 17:15 12,3 98,1 0,2 0 216 11,9 959
69 Codegua 06-05-2026 17:00 12,9 97,8 1,2 0 271 4,4 959
68 Codegua 06-05-2026 16:45 13,4 97,7 0,2 0 302 24,4 958,9
67 Codegua 06-05-2026 16:30 13,5 97,2 0 0 354 21,9 958,8
66 Codegua 06-05-2026 16:15 13,6 96,9 0 0 334 50,6 958,6
65 Codegua 06-05-2026 16:00 13,7 96,3 0,2 0,5 4 33,1 958,7
64 Codegua 06-05-2026 15:45 13,7 95,2 0,6 0 345 28,1 958,8
63 Codegua 06-05-2026 15:30 14 94,2 0,2 0,5 357 39,4 958,8
62 Codegua 06-05-2026 15:15 14,1 94,1 0,2 0,5 350 69,4 958,6
61 Codegua 06-05-2026 15:00 14 92,3 0 0 338 79,4 958,6
60 Codegua 06-05-2026 14:45 14,3 90,5 0,2 0 338 75,6 958,4
59 Codegua 06-05-2026 14:30 14 90,7 0 0 110 28,1 958,5
58 Codegua 06-05-2026 14:15 14 92,5 0 0 10 60,6 958,5
57 Codegua 06-05-2026 14:00 13,8 93,1 0 0,5 350 168,1 958,1
56 Codegua 06-05-2026 13:45 13,6 93,7 0 1 350 134,4 958,3
55 Codegua 06-05-2026 13:30 13,2 95,9 0 0,5 343 219,4 958,2
54 Codegua 06-05-2026 13:15 12,8 95 0,2 0,5 1 44,4 958,4
53 Codegua 06-05-2026 13:00 12,8 94,8 0,2 0,5 8 105,6 958
52 Codegua 06-05-2026 12:45 12,7 93,9 0,2 0,5 27 30,6 958
51 Codegua 06-05-2026 12:30 12,9 94,5 0,4 0,5 11 144,4 957,9
50 Codegua 06-05-2026 12:15 12,9 91,5 0,8 0 1 21,9 958,1
49 Codegua 06-05-2026 12:00 13,2 89,7 0 0 354 54,4 957,6
48 Codegua 06-05-2026 11:45 13,2 88,5 0,2 0 14 11,9 957,9
47 Codegua 06-05-2026 11:30 13,1 88,9 0 0,5 37 33,1 957,9
46 Codegua 06-05-2026 11:15 13,2 89,4 1,2 0 29 90,6 957,6
45 Codegua 06-05-2026 11:00 13,6 84,8 1,2 0 4 10,6 957,5
44 Codegua 06-05-2026 10:45 15 73,1 0 0 347 1,9 956,9
43 Codegua 06-05-2026 10:30 15,3 70,9 0 0,5 35 8,1 956,3
42 Codegua 06-05-2026 10:15 15,3 71,8 0 0,5 14 38,1 956,7
41 Codegua 06-05-2026 10:00 15,9 70,8 0 0,5 10 68,1 956,9
40 Codegua 06-05-2026 09:45 16,3 68,8 0 0,5 10 178,1 956,8
39 Codegua 06-05-2026 09:30 16,9 66,7 0 0,5 10 85,6 957
38 Codegua 06-05-2026 09:15 16,6 67,6 0 0,5 17 283,1 956,9
37 Codegua 06-05-2026 09:00 16,2 68,7 0 1 22 253,1 956,8
36 Codegua 06-05-2026 08:45 15,8 69,2 0 0,5 14 60,6 957
35 Codegua 06-05-2026 08:30 15,2 70,8 0 0 20 29,4 957,2
34 Codegua 06-05-2026 08:15 15,1 71,1 0 1 28 23,1 956,9
33 Codegua 06-05-2026 08:00 14,5 73 0 0,5 22 11,9 956,9
32 Codegua 06-05-2026 07:45 14 75,5 0 0 17 5,6 956,9
31 Codegua 06-05-2026 07:30 14 75,2 0 0,5 32 1,9 956,8
30 Codegua 06-05-2026 07:15 14,1 75,4 0 0,5 31 0,6 956,3
29 Codegua 06-05-2026 07:00 13,8 78,3 0 0,5 29 0,6 956,2
28 Codegua 06-05-2026 06:45 12,7 84,8 0 0 22 0,6 956,1
27 Codegua 06-05-2026 06:30 10,4 95,3 0 0 44 0,6 956,1
26 Codegua 06-05-2026 06:15 8,6 97,2 0 0 117 0,6 955,8
25 Codegua 06-05-2026 06:00 8,1 97,5 0 0 108 0,6 955,8
24 Codegua 06-05-2026 05:45 8,3 97,4 0 0 121 0,6 955,6
23 Codegua 06-05-2026 05:30 8 96,1 0 0 121 0,6 955,5
22 Codegua 06-05-2026 05:15 8,9 96,1 0 0 121 0,6 955,2
21 Codegua 06-05-2026 05:00 9,1 96,2 0 0 121 0,6 955
20 Codegua 06-05-2026 04:45 9,2 96,5 0 0 102 0,6 954,9
19 Codegua 06-05-2026 04:30 8,6 96,8 0 0 95 0,6 955
18 Codegua 06-05-2026 04:15 8,1 96,6 0 0 95 0,6 955,1
17 Codegua 06-05-2026 04:00 7,9 96 0 0 95 0,6 955,2
16 Codegua 06-05-2026 03:45 8,1 95,5 0 0 95 0,6 955,4
15 Codegua 06-05-2026 03:30 8,7 95,2 0 0 66 0,6 955,2
14 Codegua 06-05-2026 03:15 8,6 94,5 0 0 27 0,6 955,1
13 Codegua 06-05-2026 03:00 9,2 94,3 0 0 6 0,6 954,9
12 Codegua 06-05-2026 02:45 9 95,1 0 0 350 0,6 955
11 Codegua 06-05-2026 02:30 9,1 94,4 0 0 350 0,6 955,2
10 Codegua 06-05-2026 02:15 9,7 93,8 0 0 350 0,6 955,5
9 Codegua 06-05-2026 02:00 9,8 93,9 0 0 350 0,6 955,5
8 Codegua 06-05-2026 01:45 10 93,5 0 0 350 0,6 955,6
7 Codegua 06-05-2026 01:30 10 93,5 0 0 350 0,6 955,7
6 Codegua 06-05-2026 01:15 10,1 92,9 0 0 350 0,6 956,1
5 Codegua 06-05-2026 01:00 10,2 93 0 0 350 0,6 956,2
4 Codegua 06-05-2026 00:45 10 93,5 0 0 350 0,6 956,1
3 Codegua 06-05-2026 00:30 9,9 92,9 0 0 350 0,6 955,9
2 Codegua 06-05-2026 00:15 10,6 92,8 0 0 350 0,6 956,2
1 Codegua 06-05-2026 00:00 10,3 92,7 0 0 350 0,6 956,2